This is the latest recevied weather packets stored in our database for station/object WS4FSC-7. If no packets are shown the sender has not sent any weather packets the latest 10 day(s).
| Time | Temp. | Humidity | Pressure | Rain* | Wind** | Luminosity | Snow |
|---|---|---|---|---|---|---|---|
| 1787444056 | 28.89° C | 66% | 1015 hPa | - | - | 0 W/m² | - |
| 1787443875 | 28.89° C | 67% | 1015 hPa | - | - | 0 W/m² | - |
| 1787443336 | 28.89° C | 65% | 1015 hPa | - | - | 0 W/m² | - |
| 1787442976 | 28.89° C | 65% | 1015 hPa | - | - | 1 W/m² | - |
| 1787442796 | 28.89° C | 65% | 1015 hPa | - | - | 1 W/m² | - |
| 1787441715 | 29.44° C | 65% | 1015 hPa | - | - | 5 W/m² | - |
| 1787441535 | 29.44° C | 65% | 1015 hPa | - | - | 6 W/m² | - |
| 1787441356 | 29.44° C | 65% | 1014 hPa | - | - | 7 W/m² | - |
| 1787441176 | 29.44° C | 65% | 1014 hPa | - | - | 7 W/m² | - |
| 1787440818 | 30° C | 64% | 1014 hPa | - | - | 7 W/m² | - |
| 1787440635 | 30° C | 65% | 1015 hPa | - | - | 6 W/m² | - |
| 1787439916 | 30.56° C | 74% | 1015 hPa | - | - | 8 W/m² | - |
| 1787439376 | 30.56° C | 74% | 1014 hPa | - | - | 13 W/m² | - |
| 1787438116 | 30.56° C | 73% | 1014 hPa | - | - | 16 W/m² | - |
| 1787437575 | 31.11° C | 72% | 1014 hPa | - | - | 18 W/m² | - |
| 1787437215 | 31.11° C | 72% | 1014 hPa | - | - | 22 W/m² | - |
| 1787437036 | 31.11° C | 72% | 1014 hPa | - | - | 24 W/m² | - |
| 1787436497 | 32.22° C | 71% | 1014 hPa | - | - | 32 W/m² | - |
| 1787436136 | 32.78° C | 68% | 1014 hPa | - | - | 100 W/m² | - |
| 1787435596 | 32.78° C | 67% | 1014 hPa | - | - | 138 W/m² | - |
| 1787435236 | 32.78° C | 67% | 1014 hPa | - | - | 185 W/m² | - |
| 1787435056 | 32.78° C | 67% | 1014 hPa | - | - | 208 W/m² | - |
| 1787434876 | 32.78° C | 67% | 1014 hPa | - | - | 228 W/m² | - |
| 1787434696 | 32.78° C | 66% | 1014 hPa | - | - | 239 W/m² | - |
| 1787434516 | 32.78° C | 67% | 1014 hPa | - | - | 252 W/m² | - |
* Rain since midnight (hover to see other rain measurements)
** Current wind speed in m/s (hover to see current wind gust speed)